Data for 06/30/2018

Time Sea-Level Adjusted Pressure Absolute Pressure Temperature Relative Humidity Dew Point   
(mb) (inHg) (mb) (inHg) (C) (F) (%) (C) (F)
00:05 1021 30.15 850 25.1 9.5 49.1 84 7 44.7
00:10 1021 30.15 850 25.1 9.5 49.2 84 7 44.7
00:15 1021 30.15 850 25.1 9.5 49.1 84 6.9 44.4
00:20 1021 30.15 850 25.1 9.5 49.1 83 6.7 44.1
00:25 1021 30.15 850 25.1 9.6 49.3 82 6.7 44.1
00:30 1020 30.12 850 25.1 9.6 49.2 82 6.7 44.1
00:35 1020 30.12 850 25.1 9.6 49.2 81 6.5 43.7
00:40 1020 30.12 850 25.1 9.5 49.1 81 6.4 43.5
00:45 1020 30.12 850 25.1 9.6 49.2 81 6.4 43.6
00:50 1020 30.12 850 25.1 9.6 49.3 80 6.3 43.4
00:55 1020 30.12 850 25.1 9.7 49.4 80 6.4 43.5
01:00 1020 30.12 850 25.1 9.7 49.4 81 6.7 44
01:05 1020 30.12 850 25.1 9.7 49.4 81 6.5 43.7
01:10 1020 30.12 850 25.1 9.6 49.2 81 6.6 43.8
01:15 1021 30.15 850 25.1 9.4 48.9 82 6.5 43.7
01:20 1020 30.12 850 25.1 9.2 48.6 83 6.4 43.5
01:25 1020 30.12 850 25.1 9.2 48.6 82 6.3 43.4
01:30 1020 30.12 850 25.1 9.3 48.7 82 6.4 43.6
01:35 1020 30.12 850 25.1 9.4 48.8 80 6 42.9
01:40 1020 30.12 850 25.1 9.7 49.4 76 5.8 42.4
01:45 1020 30.12 850 25.1 9.8 49.6 79 6.3 43.4
01:50 1020 30.12 850 25.1 9.6 49.2 79 6.1 43
01:55 1020 30.12 850 25.1 9.5 49.1 79 6 42.8
02:00 1020 30.12 850 25.1 9.5 49.2 79 6.1 43
02:05 1020 30.12 849 25.07 9.6 49.2 74 5.2 41.4
02:10 1020 30.12 850 25.1 9.6 49.3 75 5.4 41.8
02:15 1020 30.12 850 25.1 9.5 49.2 75 5.3 41.6
02:20 1020 30.12 850 25.1 9.6 49.3 71 4.7 40.4
02:25 1020 30.12 849 25.07 9.8 49.7 69 4.6 40.2
02:30 1020 30.12 850 25.1 9.9 49.9 73 5.4 41.7
02:35 1020 30.12 850 25.1 9.6 49.2 79 6.1 43
02:40 1020 30.12 850 25.1 8.7 47.7 83 5.9 42.6
02:45 1020 30.12 850 25.1 8.3 47 81 5.2 41.4
02:50 1020 30.12 850 25.1 8.7 47.6 79 5.2 41.4
02:55 1020 30.12 850 25.1 9.1 48.3 75 4.9 40.9
03:00 1021 30.15 850 25.1 9.3 48.8 77 5.5 41.9
03:05 1021 30.15 850 25.1 9.1 48.5 78 5.5 42
03:10 1021 30.15 850 25.1 8.9 48.1 76 4.9 40.8
03:15 1021 30.15 850 25.1 9.3 48.8 72 4.5 40.1
03:20 1021 30.15 850 25.1 9.6 49.3 73 5.1 41.1
03:25 1021 30.15 850 25.1 9.5 49.1 77 5.6 42.1
03:30 1021 30.15 850 25.1 9 48.1 79 5.4 41.8
03:35 1021 30.15 850 25.1 8.8 47.8 77 5 40.9
03:40 1021 30.15 850 25.1 9.2 48.6 73 4.6 40.3
03:45 1021 30.15 850 25.1 9.6 49.2 73 5 41
03:50 1021 30.15 850 25.1 9.7 49.4 72 4.8 40.7
03:55 1021 30.15 850 25.1 9.8 49.6 72 4.9 40.9
04:00 1021 30.15 850 25.1 9.8 49.6 72 5 41
04:05 1021 30.15 850 25.1 9.9 49.7 70 4.7 40.4
04:10 1021 30.15 850 25.1 9.9 49.9 70 4.7 40.5
04:15 1021 30.15 850 25.1 9.9 49.9 71 4.8 40.7
04:20 1021 30.15 850 25.1 10 49.9 69 4.5 40.2
04:25 1021 30.15 850 25.1 10 50 69 4.7 40.4
04:30 1021 30.15 850 25.1 10 50 68 4.5 40.1
04:35 1021 30.15 850 25.1 10.1 50.1 69 4.7 40.4
04:40 1021 30.15 850 25.1 10 50 70 4.8 40.7
04:45 1021 30.15 850 25.1 9.9 49.8 70 4.7 40.5
04:50 1021 30.15 850 25.1 9.8 49.7 69 4.5 40.1
04:55 1021 30.15 850 25.1 9.8 49.7 71 4.8 40.6
05:00 1021 30.15 850 25.1 9.7 49.5 74 5.3 41.5
05:05 1021 30.15 850 25.1 9.5 49.2 72 4.7 40.5
05:10 1021 30.15 850 25.1 9.4 49 73 4.9 40.9
05:15 1021 30.15 850 25.1 9.5 49 72 4.7 40.5
05:20 1021 30.15 850 25.1 9.6 49.2 70 4.4 39.9
05:25 1021 30.15 850 25.1 9.6 49.3 72 4.8 40.7
05:30 1021 30.15 850 25.1 9.5 49.2 73 5.1 41.1
05:35 1021 30.15 850 25.1 9.5 49 74 5.1 41.1
05:40 1021 30.15 850 25.1 9.3 48.8 75 5.1 41.1
05:45 1021 30.15 850 25.1 9.3 48.7 74 4.9 40.8
05:50 1021 30.15 851 25.13 9.2 48.5 74 4.8 40.6
05:55 1021 30.15 851 25.13 9.2 48.5 73 4.7 40.4
06:00 1021 30.15 851 25.13 9.3 48.7 72 4.5 40.1
06:05 1022 30.18 851 25.13 9.4 48.9 72 4.5 40.1
06:10 1022 30.18 851 25.13 9.4 48.9 75 5.2 41.3
06:15 1022 30.18 851 25.13 9.3 48.7 74 5 41
06:20 1022 30.18 851 25.13 9.2 48.6 73 4.7 40.5
06:25 1022 30.18 851 25.13 9.2 48.5 71 4.2 39.5
06:30 1022 30.18 851 25.13 9.2 48.5 74 4.8 40.7
06:35 1022 30.18 851 25.13 9.3 48.8 73 4.8 40.7
06:40 1022 30.18 851 25.13 9.2 48.6 72 4.5 40.1
06:45 1022 30.18 851 25.13 9.4 48.9 71 4.4 39.9
06:50 1022 30.18 851 25.13 9.4 49 70 4.4 39.8
06:55 1022 30.18 851 25.13 9.5 49.1 69 4.1 39.4
07:00 1022 30.18 851 25.13 9.6 49.2 70 4.3 39.8
07:05 1022 30.18 851 25.13 9.7 49.4 68 4 39.3
07:10 1022 30.18 851 25.13 9.8 49.7 69 4.4 39.9
07:15 1022 30.18 851 25.13 10 50 67 4.2 39.5
07:20 1022 30.18 851 25.13 10.1 50.1 68 4.4 39.9
07:25 1022 30.18 851 25.13 10.3 50.5 67 4.4 40
07:30 1022 30.18 852 25.16 10.9 51.5 64 4.5 40
07:35 1022 30.18 852 25.16 11.4 52.6 61 4.3 39.8
07:40 1022 30.18 852 25.16 11.9 53.3 60 4.5 40
07:45 1022 30.18 852 25.16 12.2 53.9 59 4.6 40.2
07:50 1022 30.18 852 25.16 11.9 53.4 60 4.5 40
07:55 1022 30.18 852 25.16 11.9 53.4 59 4.1 39.4
08:00 1022 30.18 852 25.16 12.5 54.5 58 4.4 39.9
08:05 1022 30.18 852 25.16 12.2 53.9 58 4.3 39.8
08:10 1022 30.18 852 25.16 13 55.3 54 3.9 39
08:15 1022 30.18 852 25.16 13.3 55.9 53 4.1 39.3
08:20 1022 30.18 852 25.16 13 55.5 55 4.3 39.7
08:25 1022 30.18 852 25.16 12.4 54.2 56 3.9 39
08:30 1022 30.18 852 25.16 13.2 55.8 52 3.7 38.6
08:35 1022 30.18 852 25.16 13.1 55.5 53 3.7 38.7
08:40 1023 30.21 852 25.16 12.8 55 54 3.8 38.8
08:45 1023 30.21 852 25.16 13 55.3 54 4 39.3
08:50 1023 30.21 852 25.16 13.3 56 52 3.6 38.5
08:55 1023 30.21 852 25.16 13.5 56.4 51 3.7 38.7
09:00 1023 30.21 852 25.16 13.7 56.6 49 3.2 37.8
09:05 1023 30.21 852 25.16 13.7 56.6 48 3 37.5
09:10 1023 30.21 852 25.16 14.1 57.3 48 3.2 37.8
09:15 1023 30.21 852 25.16 14.2 57.5 47 3.2 37.7
09:20 1023 30.21 852 25.16 14.7 58.5 45 3.2 37.7
09:25 1023 30.21 852 25.16 14.9 58.8 47 3.9 39
09:30 1023 30.21 852 25.16 15 59 46 3.6 38.5
09:35 1023 30.21 852 25.16 15 59 46 3.4 38.2
09:40 1023 30.21 852 25.16 15.4 59.8 43 3.1 37.5
09:45 1023 30.21 852 25.16 15 59 46 3.6 38.4
09:50 1023 30.21 852 25.16 15 59 44 3 37.3
09:55 1023 30.21 852 25.16 15.6 60 45 3.8 38.9
10:00 1023 30.21 852 25.16 16.1 60.9 43 3.5 38.3
10:05 1023 30.21 852 25.16 15.9 60.6 44 3.9 39
10:10 1023 30.21 852 25.16 15.6 60 44 3.5 38.2
10:15 1023 30.21 852 25.16 15.4 59.7 45 3.7 38.7
10:20 1023 30.21 852 25.16 15 58.9 43 2.6 36.6
10:25 1022 30.18 852 25.16 15.9 60.6 42 3.2 37.8
10:30 1023 30.21 852 25.16 16.3 61.4 40 2.8 37.1
10:35 1023 30.21 852 25.16 16.2 61.1 41 3.1 37.6
10:40 1023 30.21 852 25.16 16.7 62.1 40 3 37.5
10:45 1023 30.21 852 25.16 16.6 61.8 40 3.1 37.5
10:50 1023 30.21 852 25.16 16.2 61.1 41 3.1 37.6
10:55 1023 30.21 852 25.16 16.1 61 41 3.1 37.7
11:00 1023 30.21 852 25.16 16.8 62.2 39 3 37.4
11:05 1023 30.21 852 25.16 17 62.6 39 3.1 37.5
11:10 1023 30.21 852 25.16 16.8 62.3 40 3.4 38.1
11:15 1023 30.21 852 25.16 16.6 61.8 40 2.9 37.3
11:20 1022 30.18 852 25.16 16.1 60.9 42 3.2 37.7
11:25 1022 30.18 852 25.16 16.7 62 41 3.3 38
11:30 1023 30.21 852 25.16 16.9 62.5 41 3.5 38.4
11:35 1022 30.18 852 25.16 17.2 63 38 3 37.4
11:40 1022 30.18 852 25.16 17.8 64 37 3.2 37.7
11:45 1022 30.18 852 25.16 17.5 63.5 38 3.3 37.9
11:50 1022 30.18 852 25.16 17.9 64.2 38 3.6 38.5
11:55 1022 30.18 852 25.16 17.8 64.1 37 2.9 37.3
12:00 1022 30.18 852 25.16 17.8 64 36 2.6 36.7
12:05 1022 30.18 852 25.16 17.9 64.2 35 2.4 36.3
12:10 1022 30.18 852 25.16 17.8 64.1 35 2.3 36.2
12:15 1022 30.18 852 25.16 18.2 64.8 34 2.3 36.2
12:20 1022 30.18 852 25.16 18.2 64.8 35 2.5 36.5
12:25 1022 30.18 852 25.16 18.1 64.6 36 2.8 37
12:30 1022 30.18 852 25.16 18.5 65.3 34 2.3 36.1
12:35 1022 30.18 852 25.16 18.6 65.5 35 3.1 37.5
12:40 1022 30.18 851 25.13 18 64.4 35 2.5 36.5
12:45 1022 30.18 851 25.13 17.1 62.8 38 2.7 36.8
12:50 1022 30.18 851 25.13 17.2 63 36 2.3 36.1
12:55 1022 30.18 851 25.13 18.6 65.4 33 2.3 36.2
13:00 1022 30.18 851 25.13 18.7 65.7 34 2.5 36.6
13:05 1022 30.18 851 25.13 18.6 65.5 34 2.6 36.7
13:10 1022 30.18 851 25.13 18.7 65.7 34 2.7 36.8
13:15 1022 30.18 851 25.13 19.1 66.4 34 2.9 37.2
13:20 1022 30.18 851 25.13 18.8 65.8 33 2.5 36.5
13:25 1022 30.18 851 25.13 18.4 65.2 34 2.4 36.4
13:30 1022 30.18 851 25.13 18.8 65.8 33 2.2 36
13:35 1022 30.18 851 25.13 19.3 66.7 34 3.1 37.7
13:40 1022 30.18 851 25.13 18.8 65.9 34 2.8 37
13:45 1022 30.18 851 25.13 19.2 66.5 33 2.8 37
13:50 1022 30.18 851 25.13 19.3 66.8 32 2.4 36.3
13:55 1022 30.18 851 25.13 19.8 67.6 31 2.1 35.8
14:00 1022 30.18 851 25.13 19.8 67.7 31 2.2 36
14:05 1022 30.18 851 25.13 19.3 66.7 30 1.3 34.3
14:10 1022 30.18 851 25.13 19.8 67.7 31 2.2 36
14:15 1022 30.18 851 25.13 20.2 68.3 29 1.7 35
14:20 1022 30.18 851 25.13 19.9 67.9 30 2.2 36
14:25 1022 30.18 851 25.13 19.2 66.6 32 2.2 35.9
14:30 1022 30.18 851 25.13 19.2 66.6 30 1.2 34.2
14:35 1022 30.18 851 25.13 20 68.1 30 2.1 35.8
14:40 1021 30.15 851 25.13 20.4 68.6 28 1.5 34.7
14:45 1021 30.15 851 25.13 19.7 67.5 31 2.1 35.7
14:50 1021 30.15 851 25.13 19.5 67 31 1.9 35.4
14:55 1021 30.15 850 25.1 20.3 68.6 28 1.2 34.1
15:00 1021 30.15 850 25.1 21 69.7 28 2.1 35.8
15:05 1021 30.15 850 25.1 20.9 69.7 28 1.8 35.2
15:10 1021 30.15 850 25.1 19.8 67.6 29 1.3 34.3
15:15 1021 30.15 850 25.1 19.9 67.8 28 0.8 33.5
15:20 1021 30.15 850 25.1 19.9 67.8 28 1.2 34.1
15:25 1021 30.15 850 25.1 20.4 68.7 28 1.4 34.6
15:30 1021 30.15 850 25.1 20.4 68.7 28 1.5 34.6
15:35 1021 30.15 850 25.1 20.5 69 28 1.6 34.8
15:40 1021 30.15 850 25.1 20.6 69.1 27 1.3 34.3
15:45 1021 30.15 850 25.1 20.7 69.2 28 1.6 34.8
15:50 1021 30.15 850 25.1 19.9 67.9 28 0.9 33.6
15:55 1021 30.15 850 25.1 19.7 67.4 28 0.9 33.6
16:00 1021 30.15 850 25.1 19.8 67.7 29 1.3 34.3
16:05 1021 30.15 850 25.1 20.6 69.1 26 0.4 32.7
16:10 1021 30.15 850 25.1 20.7 69.3 27 1.4 34.6
16:15 1021 30.15 850 25.1 20.5 68.9 26 0.7 33.3
16:20 1020 30.12 850 25.1 21 69.8 26 0.8 33.4
16:25 1020 30.12 850 25.1 19.7 67.5 29 1.4 34.5
16:30 1020 30.12 850 25.1 19.4 67 29 1.1 34
16:35 1020 30.12 850 25.1 20.6 69 28 1.8 35.3
16:40 1020 30.12 850 25.1 21.1 69.9 29 2.6 36.7
16:45 1020 30.12 850 25.1 20.1 68.2 30 2 35.7
16:50 1020 30.12 850 25.1 20.8 69.4 26 1 33.8
16:55 1020 30.12 849 25.07 21.2 70.2 28 2.4 36.3
17:00 1020 30.12 849 25.07 20.8 69.4 28 2 35.5
17:05 1020 30.12 849 25.07 20.6 69.1 29 2.3 36.1
17:10 1020 30.12 849 25.07 20.6 69.1 29 1.9 35.5
17:15 1020 30.12 849 25.07 21.4 70.4 28 2.3 36.1
17:20 1020 30.12 849 25.07 21.6 70.9 28 2.4 36.3
17:25 1020 30.12 849 25.07 22.1 71.8 28 2.7 36.9
17:30 1020 30.12 849 25.07 21.5 70.7 28 2.3 36.2
17:35 1020 30.12 849 25.07 20.7 69.2 29 2.1 35.9
17:40 1020 30.12 849 25.07 20.4 68.7 30 2.3 36.2
17:45 1020 30.12 849 25.07 20.2 68.4 29 1.6 35
17:50 1020 30.12 849 25.07 20.3 68.6 29 1.7 35.1
17:55 1020 30.12 849 25.07 20.9 69.7 28 2.1 35.7
18:00 1020 30.12 849 25.07 21.1 70.1 28 2.1 35.7
18:05 1020 30.12 849 25.07 21.2 70.2 27 1.8 35.3
18:10 1020 30.12 849 25.07 21.1 70 28 2 35.6
18:15 1019 30.09 849 25.07 20.7 69.3 28 1.8 35.2
18:20 1019 30.09 849 25.07 20.5 68.9 28 1.4 34.6
18:25 1019 30.09 849 25.07 20.4 68.7 29 1.8 35.2
18:30 1019 30.09 849 25.07 20.1 68.2 29 1.8 35.2
18:35 1019 30.09 849 25.07 20.4 68.6 28 1.5 34.7
18:40 1019 30.09 849 25.07 20.5 68.8 29 1.9 35.4
18:45 1019 30.09 849 25.07 20.5 68.8 29 1.9 35.5
18:50 1019 30.09 848 25.04 20.2 68.3 30 2.3 36.1
18:55 1019 30.09 848 25.04 20.2 68.4 28 1.2 34.2
19:00 1019 30.09 848 25.04 20.8 69.4 28 2 35.6
19:05 1019 30.09 848 25.04 21.1 69.9 29 2.5 36.5
19:10 1019 30.09 848 25.04 21 69.9 29 2.5 36.6
19:15 1019 30.09 848 25.04 20.5 68.9 30 2.3 36.2
19:20 1019 30.09 848 25.04 20.3 68.5 31 2.6 36.7
19:25 1019 30.09 848 25.04 20.5 68.9 32 3.6 38.5
19:30 1019 30.09 848 25.04 20.6 69.1 30 2.7 36.9
19:35 1019 30.09 848 25.04 20.3 68.5 31 2.7 36.8
19:40 1019 30.09 848 25.04 20 67.9 32 2.9 37.3
19:45 1019 30.09 848 25.04 19.8 67.6 30 2 35.6
19:50 1019 30.09 848 25.04 19.5 67 31 2.1 35.8
19:55 1019 30.09 848 25.04 19.1 66.4 32 2 35.6
20:00 1019 30.09 848 25.04 18.8 65.8 33 2.2 36
20:05 1019 30.09 848 25.04 18.5 65.4 33 2.2 35.9
20:10 1019 30.09 848 25.04 18.4 65.1 33 2 35.7
20:15 1019 30.09 848 25.04 18.4 65.2 33 2.2 35.9
20:20 1019 30.09 848 25.04 18.5 65.3 34 2.6 36.6
20:25 1019 30.09 848 25.04 18.5 65.3 35 2.9 37.2
20:30 1019 30.09 848 25.04 18.5 65.2 35 3 37.4
20:35 1019 30.09 848 25.04 18.4 65.1 35 2.6 36.7
20:40 1019 30.09 848 25.04 18.3 65 36 2.9 37.3
20:45 1019 30.09 848 25.04 18.1 64.6 38 3.6 38.5
20:50 1019 30.09 848 25.04 17.8 64 38 3.4 38.1
20:55 1019 30.09 848 25.04 17.3 63.2 40 3.6 38.5
21:00 1019 30.09 848 25.04 17.1 62.8 42 4.4 39.8
21:05 1019 30.09 848 25.04 16.8 62.2 44 4.5 40.1
21:10 1019 30.09 848 25.04 16.5 61.7 45 4.8 40.6
21:15 1019 30.09 848 25.04 16.4 61.6 43 4 39.1
21:20 1019 30.09 848 25.04 16.5 61.7 44 4.2 39.6
21:25 1019 30.09 848 25.04 16.5 61.6 44 4.2 39.6
21:30 1019 30.09 848 25.04 16.5 61.6 43 3.8 38.8
21:35 1019 30.09 848 25.04 16.5 61.7 41 3.2 37.8
21:40 1019 30.09 848 25.04 16.7 62 41 3.3 38
21:45 1019 30.09 848 25.04 16.7 62.1 41 3.5 38.3
21:50 1019 30.09 848 25.04 16.7 62 41 3.6 38.4
21:55 1019 30.09 848 25.04 16.6 61.8 41 3.5 38.2
22:00 1019 30.09 848 25.04 16.5 61.7 40 3.1 37.5
22:05 1019 30.09 848 25.04 16.7 62 39 2.8 37.1
22:10 1019 30.09 848 25.04 16.8 62.2 38 2.7 36.9
22:15 1019 30.09 848 25.04 16.7 62.1 40 3 37.4
22:20 1019 30.09 848 25.04 16.5 61.8 41 3.3 37.9
22:25 1019 30.09 848 25.04 16.3 61.3 42 3.6 38.5
22:30 1019 30.09 848 25.04 16 60.9 44 3.8 38.9
22:35 1019 30.09 848 25.04 15.9 60.6 43 3.3 37.9
22:40 1019 30.09 848 25.04 16.1 60.9 43 3.6 38.5
22:45 1019 30.09 848 25.04 16.1 61 44 3.8 38.9
22:50 1019 30.09 848 25.04 16 60.9 44 3.8 38.9
22:55 1019 30.09 848 25.04 16 60.8 44 3.8 38.9
23:00 1019 30.09 848 25.04 16 60.7 44 3.7 38.7
23:05 1019 30.09 848 25.04 16.1 61 43 3.5 38.4
23:10 1019 30.09 848 25.04 16.3 61.3 41 3 37.5
23:15 1019 30.09 848 25.04 16.5 61.8 39 2.5 36.5
23:20 1019 30.09 848 25.04 16.7 62.1 38 2.3 36.2
23:25 1019 30.09 848 25.04 16.8 62.2 38 2.5 36.6
23:30 1018 30.06 848 25.04 16.6 61.9 40 3.1 37.6
23:35 1018 30.06 848 25.04 16.4 61.6 42 3.5 38.3
23:40 1018 30.06 848 25.04 16.2 61.2 42 3.5 38.3
23:45 1018 30.06 848 25.04 16.2 61.1 43 3.6 38.4
23:50 1018 30.06 848 25.04 16.1 61 43 3.7 38.7
23:55 1018 30.06 848 25.04 16 60.9 45 4.3 39.8
24:00 1018 30.06 847 25.01 15.9 60.6 45 4.1 39.4